Regional Weather Roundup
Issued by NWS

Home | Current Version | Previous Version | Graphics & Text | Print | Product List | Glossary On
Versions: 1 2 3 4 5 6 7 8 9 10 11 12 13 14 15 16 17 18 19 20 21 22 23 24 25 26 27 28 29 30 31 32 33 34 35 36 37 38 39 40 41 42 43 44 45 46 47 48 49 50
000
ASUS43 KOAX 270502
RWRNE

WEATHER ROUNDUP FOR NEBRASKA
NATIONAL WEATHER SERVICE OMAHA NE
1200 AM CDT WED MAY 27 2015

NOTES: SATELLITE DATA IS BEING USED TO AUGMENT CLOUD COVER ABOVE
       12000 FEET.
       "FAIR" INDICATES FEW OR NO CLOUDS BELOW 12,000 FEET WITH NO
       SIGNIFICANT WEATHER AND/OR OBSTRUCTIONS TO VISIBILITY.

  * THESE STATIONS DO NOT REPORT WEATHER SUCH AS RAIN...SNOW OR FOG.

NEZ001>004-019>022-054>056-270600-
NEBRASKA PANHANDLE

CITY           SKY/WX    TMP DP  RH WIND       PRES   REMARKS
SCOTTSBLUFF    MOCLDY    57  52  83 E7        30.03S
ALLIANCE       MOCLDY    52  49  89 SE8       30.02F
CHADRON        CLOUDY    58  50  75 SE6       30.00F
SIDNEY         PTCLDY    50  48  93 S7        30.06S
$$

NEZ057>060-069>072-079>082-270600-
SOUTHWEST NEBRASKA

CITY           SKY/WX    TMP DP  RH WIND       PRES   REMARKS
NORTH PLATTE   CLEAR     52  48  86 CALM      30.04S
IMPERIAL       CLEAR     53  49  86 SE6       30.04S
LEXINGTON      CLEAR     55  50  82 CALM      30.02F
MCCOOK         CLEAR     57  48  72 E3        30.02F
$$

NEZ005>010-023>029-035>040-094-270600-
NORTH CENTRAL NEBRASKA

CITY           SKY/WX    TMP DP  RH WIND       PRES   REMARKS
VALENTINE      CLEAR     53  49  86 W5        30.01R
AINSWORTH      CLEAR     56  50  81 SW5       30.01S
BROKEN BOW     CLEAR     57  49  74 W6        30.01S
ORD            CLEAR     55  48  77 CALM      29.98R
$$

NEZ041-046>049-061>064-073>077-083>087-270600-
SOUTH CENTRAL NEBRASKA

CITY           SKY/WX    TMP DP  RH WIND       PRES   REMARKS
GRAND ISLAND   CLEAR     56  48  74 W8        30.00R
HASTINGS       CLEAR     57  49  74 SW5       30.00S
KEARNEY *      CLEAR     61  48  63 W6        30.01S
$$

NEZ011>018-030>034-042>045-270600-
NORTHEAST NEBRASKA

CITY           SKY/WX    TMP DP  RH WIND       PRES   REMARKS
NORFOLK        CLEAR     57  52  83 W7        29.94S
BLAIR          CLEAR     58  53  84 CALM      29.93S
COLUMBUS *       N/A    N/A N/A N/A MISG        N/A
FREMONT        CLEAR     58  55  88 CALM      29.94S
TEKAMAH        PTCLDY    57  54  89 SW7       29.92R
$$

NEZ050>053-065>068-078-088>093-270600-
SOUTHEAST NEBRASKA

CITY           SKY/WX    TMP DP  RH WIND       PRES   REMARKS
LINCOLN        CLEAR     61  53  75 NW3       29.95S
OMAHA EPPLEY   CLEAR     58  56  93 NW3       29.93R
FALLS CITY     CLEAR     62  56  80 W8        29.95R
$$

NEZ044-045-051>053-067-270600-
OMAHA AREA

CITY           SKY/WX    TMP DP  RH WIND       PRES   REMARKS
OMAHA EPPLEY   CLEAR     58  56  93 NW3       29.93R
BLAIR          CLEAR     58  53  84 CALM      29.93S
FREMONT        CLEAR     58  55  88 CALM      29.94S
OFFUTT AFB     CLEAR     58  54  88 NW7       29.92R
$$


USA.gov is the U.S. government's official web portal to all federal, state and local government web resources and services.